STARLINK-32045 (60106 NORAD) Tracking and Keplerian Element Data

This shows tracking and keplerian element data for the satellite.

Feedback or suggestion? Click here.




ElementValue
Catalog60106
NameSTARLINK-32045
Epoch Orbit1837
Epoch Day286.89328957
Epoch Year2024
RAAN259.1107
Inclination53.1579
Eccentricity0.0001238
Argument of Perigee42.9644
Mean Anonmoly317.1453
Mean Motion15.30177534
Decay Rate0.00046071
L11 60106U 24117R 24286.89328957 .00046071 00000+0 15591-2 0 9991
L22 60106 53.1579 259.1107 0001238 42.9644 317.1453 15.30177534 18372



Live tracking and technical data element details for STARLINK-32045 (NORAD 60106). STARLINK-32045 can be tracked NOW for your location showing map with azimuth and elevation plus other details from your city location.







IsCatalogInMostPopularTable: catalog: 60106, numindb: 9
Update: records affected: 1



GetName: 60106 STARLINK-32045

Hit Count: updated at: Thu, 23 Jan 2025 14:05:41 GMT